• Em Portugal
  • Lista de países
  • Para 7 dias
  • Temperatura da água
  • Mapas de satélite
  • Mapa do tempo
  • Widgets de tempo
  • user-avatar
    Iniciar Sessão

    Previsão horária em Boa Vista

    Hoje, 26 Maio, Sábado

    Tempo Temperatura Precipitação Vento Pressão Humidade
    00:00 +27°C° 1,1 mm 1 m/s 754 mmHg 89%
    01:00 +26°C° 1,1 mm 1 m/s 754 mmHg 89%
    02:00 +26°C° 0 mm 1 m/s 754 mmHg 89%
    03:00 +26°C° 0,7 mm 1 m/s 754 mmHg 89%
    04:00 +26°C° 0,7 mm 1 m/s 754 mmHg 90%
    05:00 +26°C° 0,7 mm 1 m/s 754 mmHg 90%
    06:00 +27°C° 0,4 mm 1 m/s 754 mmHg 89%
    07:00 +27°C° 0,4 mm 1 m/s 754 mmHg 87%
    08:00 +27°C° 0,4 mm 2 m/s 755 mmHg 86%
    09:00 +28°C° 0,6 mm 2 m/s 755 mmHg 83%
    10:00 +29°C° 0,6 mm 3 m/s 755 mmHg 80%
    11:00 +30°C° 0,6 mm 3 m/s 754 mmHg 77%
    12:00 +30°C° 0,3 mm 3 m/s 754 mmHg 75%
    13:00 +31°C° 0,3 mm 2 m/s 753 mmHg 72%
    14:00 +31°C° 0,3 mm 2 m/s 752 mmHg 70%
    15:00 +32°C° 0 mm 2 m/s 752 mmHg 68%
    16:00 +32°C° 0 mm 1 m/s 751 mmHg 67%
    17:00 +32°C° 0 mm 1 m/s 751 mmHg 65%
    18:00 +31°C° 0,6 mm 1 m/s 751 mmHg 72%
    19:00 +29°C° 0,6 mm 2 m/s 752 mmHg 79%
    20:00 +28°C° 0,6 mm 2 m/s 752 mmHg 85%
    21:00 +28°C° 1,6 mm 2 m/s 753 mmHg 86%
    22:00 +27°C° 1,6 mm 2 m/s 753 mmHg 87%
    23:00 +27°C° 1,6 mm 2 m/s 753 mmHg 89%

    Amanhã, 27 Maio, Domingo

    Tempo Temperatura Precipitação Vento Pressão Humidade
    00:00 +27°C° 0,8 mm 2 m/s 753 mmHg 89%
    01:00 +26°C° 0,8 mm 2 m/s 753 mmHg 90%
    02:00 +26°C° 0,8 mm 2 m/s 753 mmHg 90%
    03:00 +26°C° 0,6 mm 2 m/s 753 mmHg 91%
    04:00 +26°C° 0,6 mm 2 m/s 753 mmHg 91%
    05:00 +26°C° 0,6 mm 2 m/s 753 mmHg 92%
    06:00 +26°C° 0,3 mm 2 m/s 753 mmHg 90%
    07:00 +27°C° 0,3 mm 3 m/s 754 mmHg 87%
    08:00 +27°C° 0,3 mm 4 m/s 754 mmHg 85%
    09:00 +28°C° 1,3 mm 4 m/s 754 mmHg 82%
    10:00 +29°C° 1,3 mm 4 m/s 754 mmHg 80%
    11:00 +32°C° 1,3 mm 4 m/s 754 mmHg 77%
    12:00 +32°C° 1,4 mm 4 m/s 754 mmHg 75%
    13:00 +33°C° 1,4 mm 4 m/s 753 mmHg 72%
    14:00 +33°C° 1,4 mm 4 m/s 752 mmHg 70%
    15:00 +33°C° 0,7 mm 3 m/s 752 mmHg 72%
    16:00 +31°C° 0,7 mm 3 m/s 751 mmHg 74%
    17:00 +31°C° 0,7 mm 2 m/s 751 mmHg 76%
    18:00 +30°C° 0,9 mm 2 m/s 752 mmHg 80%
    19:00 +29°C° 0,9 mm 2 m/s 752 mmHg 83%
    20:00 +28°C° 0,9 mm 2 m/s 753 mmHg 86%
    21:00 +27°C° 1 mm 2 m/s 754 mmHg 87%
    22:00 +27°C° 1 mm 2 m/s 754 mmHg 88%
    23:00 +27°C° 1 mm 2 m/s 755 mmHg 88%

    Depois de amanhã, 28 Maio, Segunda-feira

    Tempo Temperatura Precipitação Vento Pressão Humidade
    00:00 +26°C° 0,2 mm 2 m/s 754 mmHg 89%
    01:00 +26°C° 0,2 mm 2 m/s 754 mmHg 90%
    02:00 +26°C° 0,2 mm 2 m/s 753 mmHg 91%
    03:00 +26°C° 1,1 mm 2 m/s 753 mmHg 91%
    04:00 +26°C° 1,1 mm 2 m/s 753 mmHg 92%
    05:00 +26°C° 1,1 mm 2 m/s 753 mmHg 93%
    06:00 +26°C° 4,7 mm 2 m/s 754 mmHg 92%
    07:00 +26°C° 4,7 mm 2 m/s 754 mmHg 92%
    08:00 +26°C° 4,7 mm 3 m/s 755 mmHg 92%
    09:00 +27°C° 1,8 mm 3 m/s 755 mmHg 89%
    10:00 +28°C° 1,8 mm 3 m/s 755 mmHg 86%
    11:00 +29°C° 1,8 mm 3 m/s 755 mmHg 83%
    12:00 +29°C° 0,6 mm 3 m/s 755 mmHg 79%
    13:00 +30°C° 0,6 mm 3 m/s 754 mmHg 76%
    14:00 +32°C° 0,6 mm 4 m/s 753 mmHg 72%
    15:00 +31°C° 0,1 mm 3 m/s 752 mmHg 72%
    16:00 +31°C° 0,1 mm 3 m/s 752 mmHg 72%
    17:00 +30°C° 0,1 mm 2 m/s 752 mmHg 72%
    18:00 +29°C° 0 mm 2 m/s 752 mmHg 76%
    19:00 +28°C° 0 mm 1 m/s 753 mmHg 80%
    20:00 +27°C° 0 mm 1 m/s 753 mmHg 84%
    21:00 +27°C° 0,2 mm 1 m/s 754 mmHg 85%
    22:00 +27°C° 0,2 mm 1 m/s 754 mmHg 86%
    23:00 +27°C° 0,2 mm 1 m/s 755 mmHg 87%

    29 Maio, Terça-feira

    Tempo Temperatura Precipitação Vento Pressão Humidade
    00:00 +26°C° 0,1 mm 1 m/s 754 mmHg 87%
    01:00 +26°C° 0,1 mm 1 m/s 754 mmHg 88%
    02:00 +26°C° 0,1 mm 2 m/s 753 mmHg 88%
    03:00 +26°C° 0 mm 2 m/s 753 mmHg 88%
    04:00 +25°C° 0 mm 2 m/s 753 mmHg 89%
    05:00 +25°C° 0 mm 2 m/s 754 mmHg 89%
    06:00 +26°C° 0 mm 2 m/s 754 mmHg 86%
    07:00 +27°C° 0 mm 3 m/s 755 mmHg 83%
    08:00 +28°C° 0 mm 4 m/s 755 mmHg 79%
    09:00 +29°C° 0,3 mm 4 m/s 755 mmHg 75%
    10:00 +30°C° 0,3 mm 4 m/s 755 mmHg 71%
    11:00 +32°C° 0,3 mm 4 m/s 755 mmHg 67%
    12:00 +33°C° 0,4 mm 4 m/s 754 mmHg 65%
    13:00 +33°C° 0,4 mm 3 m/s 753 mmHg 64%
    14:00 +34°C° 0,4 mm 3 m/s 752 mmHg 62%
    15:00 +33°C° 0,3 mm 3 m/s 752 mmHg 65%
    16:00 +32°C° 0,3 mm 2 m/s 752 mmHg 69%
    17:00 +31°C° 0,3 mm 2 m/s 751 mmHg 72%
    18:00 +30°C° 0,4 mm 2 m/s 752 mmHg 77%
    19:00 +29°C° 0,4 mm 2 m/s 753 mmHg 82%
    20:00 +28°C° 0,4 mm 2 m/s 753 mmHg 86%
    21:00 +27°C° 0,7 mm 2 m/s 754 mmHg 87%
    22:00 +27°C° 0,7 mm 2 m/s 754 mmHg 88%
    23:00 +27°C° 0,7 mm 2 m/s 754 mmHg 89%

    30 Maio, Quarta-feira

    Tempo Temperatura Precipitação Vento Pressão Humidade
    00:00 +26°C° 0,2 mm 2 m/s 754 mmHg 89%
    01:00 +26°C° 0,2 mm 2 m/s 753 mmHg 90%
    02:00 +26°C° 0,2 mm 2 m/s 753 mmHg 91%
    03:00 +26°C° 0,2 mm 2 m/s 753 mmHg 91%
    04:00 +25°C° 0,2 mm 2 m/s 753 mmHg 91%
    05:00 +25°C° 0,2 mm 2 m/s 754 mmHg 91%
    06:00 +26°C° 0 mm 3 m/s 754 mmHg 87%
    07:00 +27°C° 0 mm 3 m/s 755 mmHg 84%
    08:00 +28°C° 0 mm 4 m/s 755 mmHg 80%
    09:00 +28°C° 0,1 mm 4 m/s 755 mmHg 77%
    10:00 +29°C° 0,1 mm 3 m/s 755 mmHg 75%
    11:00 +30°C° 0,1 mm 3 m/s 755 mmHg 72%
    12:00 +29°C° 0,6 mm 3 m/s 754 mmHg 75%
    13:00 +29°C° 0,6 mm 3 m/s 753 mmHg 77%
    14:00 +29°C° 0,6 mm 4 m/s 753 mmHg 80%
    15:00 +28°C° 0,3 mm 3 m/s 752 mmHg 81%
    16:00 +28°C° 0,3 mm 3 m/s 752 mmHg 82%
    17:00 +28°C° 0,3 mm 3 m/s 752 mmHg 84%
    18:00 +27°C° 0 mm 3 m/s 753 mmHg 85%
    19:00 +27°C° 0 mm 2 m/s 753 mmHg 87%
    20:00 +26°C° 0 mm 2 m/s 753 mmHg 89%
    21:00 +26°C° 0 mm 2 m/s 754 mmHg 90%
    22:00 +26°C° 0 mm 2 m/s 754 mmHg 90%
    23:00 +26°C° 0 mm 2 m/s 754 mmHg 91%

    31 Maio, Quinta-feira

    Tempo Temperatura Precipitação Vento Pressão Humidade
    00:00 +26°C° 0,1 mm 2 m/s 754 mmHg 91%
    01:00 +26°C° 0,1 mm 2 m/s 753 mmHg 92%
    02:00 +25°C° 0,1 mm 2 m/s 753 mmHg 93%
    03:00 +25°C° 0,2 mm 2 m/s 753 mmHg 93%
    04:00 +25°C° 0,2 mm 2 m/s 753 mmHg 93%
    05:00 +25°C° 0,2 mm 1 m/s 753 mmHg 94%
    06:00 +26°C° 0,2 mm 2 m/s 754 mmHg 91%
    07:00 +26°C° 0,2 mm 2 m/s 754 mmHg 89%
    08:00 +27°C° 0,2 mm 2 m/s 755 mmHg 87%
    09:00 +28°C° 0,2 mm 3 m/s 755 mmHg 81%
    10:00 +29°C° 0,2 mm 3 m/s 755 mmHg 76%
    11:00 +31°C° 0,2 mm 3 m/s 755 mmHg 71%
    12:00 +31°C° 0,6 mm 3 m/s 754 mmHg 69%
    13:00 +31°C° 0,6 mm 3 m/s 753 mmHg 68%
    14:00 +33°C° 0,6 mm 3 m/s 752 mmHg 67%
    15:00 +33°C° 0,3 mm 3 m/s 752 mmHg 68%
    16:00 +31°C° 0,3 mm 3 m/s 751 mmHg 70%
    17:00 +31°C° 0,3 mm 2 m/s 751 mmHg 71%
    18:00 +30°C° 0,1 mm 2 m/s 752 mmHg 75%
    19:00 +29°C° 0,1 mm 2 m/s 752 mmHg 79%
    20:00 +28°C° 0,1 mm 2 m/s 753 mmHg 82%
    21:00 +27°C° 0 mm 2 m/s 753 mmHg 83%
    22:00 +27°C° 0 mm 2 m/s 753 mmHg 85%
    23:00 +27°C° 0 mm 2 m/s 754 mmHg 86%
    Mostrar mais